Wind_Speed
72 71 70 69 68 67 66 65 64 63 62 61 60 60 59 58 58 57 57 56 55 54 53 53 52 52 52 53 53 54 54 55 55 56 56 52 49 49 50 52 52 51 50 50 49 48 48 47 46 45 44 43 42 40 38 38 36 35 34 32 28 22 18 19 22 24 23 23 20 17 16 18 18 18 18 17 17 16 16 16 16 16 15 14 13 12 12 11
74 73 73 72 70 69 68 67 66 65 64 63 63 62 61 60 59 58 58 57 57 55 55 54 53 53 52 52 53 53 54 54 55 55 53 50 48 49 50 51 53 53 52 52 51 50 50 49 48 47 46 46 44 43 42 40 39 38 36 35 30 23 20 22 24 24 25 25 23 19 16 17 19 19 19 19 19 18 18 18 17 17 16 16 14 14 13 12
77 76 75 74 73 72 71 70 68 67 66 65 64 63 63 62 61 60 59 59 58 57 56 56 55 54 54 53 53 53 53 54 56 52 48 48 48 49 51 52 53 54 53 53 53 53 52 51 50 49 49 48 47 45 45 43 42 40 39 38 31 24 25 25 25 25 27 28 25 21 18 18 19 19 20 21 20 19 20 19 18 17 16 17 16 15 14 13
79 78 78 77 75 74 73 72 71 70 68 67 66 66 65 64 63 62 61 61 60 59 58 58 57 56 55 54 54 53 54 55 54 49 47 50 49 48 51 51 52 54 54 54 54 54 54 53 52 52 51 51 50 48 47 45 44 43 41 39 32 29 29 26 26 28 28 29 27 24 22 20 20 19 20 22 21 21 23 20 18 18 17 17 17 17 16 14
81 80 79 79 78 76 76 74 73 72 70 69 68 68 67 66 65 64 63 63 62 61 60 59 59 58 57 56 55 55 55 55 54 49 49 52 49 47 49 50 51 53 54 55 55 56 55 55 55 54 53 52 51 50 49 47 46 45 43 41 36 33 31 27 29 30 30 30 29 28 25 23 21 20 21 22 21 23 25 22 19 20 19 18 18 18 18 16
82 82 81 80 79 78 78 77 75 74 73 71 71 70 69 68 67 66 65 65 64 64 63 62 61 60 59 58 57 56 56 56 55 52 51 52 49 47 47 49 51 51 53 54 55 56 56 56 56 56 55 54 53 52 51 49 48 48 46 44 40 37 33 30 32 33 32 32 31 31 29 25 23 21 22 22 22 26 27 23 21 21 21 20 19 20 20 18
84 84 83 82 81 80 79 78 77 76 75 74 73 72 71 70 69 68 68 67 66 66 65 64 63 62 61 60 59 58 57 56 56 54 52 51 49 48 47 48 50 50 51 52 53 54 55 55 55 56 56 55 54 53 52 51 51 51 49 46 43 41 37 33 35 35 35 34 33 33 31 28 25 23 23 21 23 28 29 25 23 23 22 22 21 21 21 21
86 86 85 84 83 82 81 80 79 78 77 77 75 74 73 72 72 70 70 69 68 68 67 66 65 64 63 63 62 61 58 54 55 55 54 52 51 49 49 48 49 49 49 50 50 51 52 54 55 56 57 57 56 54 53 52 53 53 51 48 45 44 40 37 39 39 38 36 36 36 34 31 28 26 23 21 25 29 30 27 25 24 24 23 23 23 23 22
88 88 87 86 85 84 83 82 81 79 79 78 77 76 75 75 74 72 72 72 71 70 69 69 68 67 66 65 64 63 58 53 55 58 58 55 53 52 51 50 50 50 50 50 50 50 51 52 53 54 56 58 57 56 54 54 56 55 53 51 49 48 45 42 43 42 41 39 38 38 36 32 31 30 22 20 27 30 30 29 27 26 25 25 25 25 25 24
90 90 89 88 87 86 85 84 82 81 81 80 78 77 77 76 76 75 74 74 73 72 72 71 71 70 68 68 67 64 59 55 56 61 62 59 55 54 52 52 52 51 51 51 51 50 50 50 50 52 54 57 58 58 57 56 58 55 54 53 53 52 49 47 46 45 44 42 40 40 38 34 35 33 21 19 27 30 32 31 29 28 27 27 27 27 26 25
91 91 90 90 89 88 87 86 85 83 82 81 80 79 79 78 78 77 77 76 76 75 74 74 73 73 71 71 69 65 60 58 58 62 65 62 59 56 54 53 52 52 53 52 52 52 51 50 50 52 54 57 58 58 58 57 57 56 55 56 56 54 52 50 49 48 46 45 43 42 42 38 38 35 20 19 29 32 33 33 31 29 29 30 29 29 28 27
93 93 92 91 91 90 89 88 87 85 84 83 82 81 80 80 80 79 79 78 78 78 77 77 77 76 75 74 70 66 62 61 62 63 64 65 62 59 57 55 54 54 54 54 53 53 53 52 52 52 54 56 57 58 59 58 58 58 57 58 58 57 56 53 52 50 49 49 45 44 46 42 41 36 23 24 33 34 34 33 32 31 31 32 31 30 30 29
94 94 94 93 92 91 90 90 88 87 86 85 84 82 81 81 81 80 80 80 80 80 80 80 80 79 79 76 70 67 66 66 67 65 64 65 65 63 60 58 57 57 57 56 56 55 55 55 54 54 54 55 56 58 59 59 59 59 59 60 60 60 59 56 54 53 52 51 47 47 49 45 43 37 28 30 35 35 34 32 33 33 32 33 33 33 32 32
93 94 95 95 94 93 92 91 90 89 88 86 85 84 83 82 82 82 82 82 82 82 83 83 83 83 82 77 72 71 70 70 70 67 65 66 66 66 64 62 60 60 59 59 59 58 58 57 56 56 56 56 57 57 58 59 59 60 61 62 62 62 61 58 56 55 55 53 50 51 53 48 45 40 32 34 37 36 35 33 33 33 34 34 35 35 34 33
90 92 93 95 95 94 93 93 91 91 89 88 86 85 84 83 82 82 83 84 84 84 85 85 85 86 85 79 75 74 74 73 71 69 68 67 68 68 67 66 64 62 62 61 61 61 60 60 59 58 57 57 58 57 57 58 59 60 62 63 63 63 63 60 57 56 57 56 53 55 56 52 49 42 34 35 38 38 37 35 34 33 34 35 36 37 36 36
87 88 90 92 93 94 94 94 93 92 91 90 88 86 85 82 82 82 81 81 83 86 88 88 87 87 86 82 78 76 76 74 71 70 70 69 69 70 70 70 68 66 65 64 64 63 63 63 62 61 60 59 59 59 58 59 59 59 61 63 64 64 64 63 60 57 58 59 57 59 60 56 54 46 37 38 40 39 39 37 37 35 34 35 36 37 38 38
85 86 86 88 90 91 92 93 93 92 91 91 89 88 86 83 81 79 74 72 76 83 89 89 88 88 88 84 80 78 76 74 72 73 73 72 72 72 72 73 72 71 69 68 67 66 66 66 66 65 64 62 62 62 62 63 62 61 62 62 63 64 64 64 63 60 59 61 62 62 62 59 57 51 42 40 41 41 40 38 38 37 36 36 37 38 38 38
83 84 84 84 86 87 88 89 90 90 90 90 89 88 86 83 77 72 69 70 72 77 84 90 91 92 90 84 79 78 76 74 74 75 75 75 75 75 76 76 75 74 73 72 71 70 69 69 69 69 67 67 65 65 66 64 63 61 60 59 59 62 63 63 66 64 61 63 64 64 64 62 60 57 47 42 43 43 42 40 38 40 40 39 38 38 37 37
82 83 83 83 83 84 84 85 86 87 86 87 87 84 83 81 76 72 72 74 74 77 85 92 95 94 88 81 80 79 78 78 77 78 79 79 80 80 79 79 78 77 77 76 74 73 73 72 72 73 71 69 67 67 66 64 63 60 59 59 59 60 62 62 65 67 63 63 64 65 65 64 62 61 54 47 45 46 44 42 41 41 42 41 40 38 37 36
82 82 82 83 83 82 82 82 82 83 83 83 83 80 77 77 78 79 78 75 73 74 82 90 94 92 88 84 83 82 81 82 81 82 83 82 82 81 81 80 79 79 80 78 77 76 75 75 75 74 71 68 67 67 66 65 64 62 62 63 62 63 63 62 63 66 65 64 65 65 66 66 64 63 60 53 49 49 48 46 44 43 43 43 42 41 38 37
82 82 83 83 83 82 81 81 80 80 81 81 80 80 79 77 79 79 76 76 75 73 77 87 92 92 91 89 86 86 86 86 84 84 84 84 83 83 83 82 81 81 81 79 79 79 79 79 77 73 69 68 69 69 68 68 67 66 66 66 66 66 66 64 64 64 66 67 66 66 68 69 67 66 64 60 55 53 52 50 46 44 44 44 44 43 41 38
82 83 83 82 83 82 81 81 79 78 79 79 80 82 81 77 74 72 71 73 76 76 78 82 84 87 90 90 89 89 90 90 88 87 86 86 85 86 85 84 84 82 81 80 81 82 82 82 77 71 70 71 72 72 72 71 70 69 69 70 69 68 67 67 66 64 66 67 67 68 71 71 70 69 67 65 61 58 56 53 50 47 46 45 45 44 43 41
81 82 82 83 83 81 81 81 80 79 80 80 81 80 78 75 71 68 68 70 73 75 78 78 78 79 81 85 88 89 90 91 91 89 89 87 86 86 85 85 85 83 82 82 83 84 84 82 76 71 72 74 74 74 74 73 73 72 72 72 71 69 69 68 67 67 66 66 67 68 71 72 72 72 70 68 64 61 59 56 53 50 48 46 45 44 44 44
78 80 81 82 82 82 81 81 82 83 81 80 80 75 72 72 71 68 66 69 73 75 76 76 75 74 73 75 79 83 86 89 89 89 89 88 87 86 85 84 84 83 83 82 81 83 84 80 74 72 74 75 75 75 75 75 75 74 73 73 72 70 70 69 68 69 68 68 68 68 72 74 73 73 73 70 67 64 62 60 57 53 50 48 47 47 46 45
74 76 79 80 81 82 81 83 86 85 82 80 77 73 70 69 68 65 65 69 74 75 76 75 72 71 69 68 71 76 80 83 85 85 86 86 86 86 85 84 84 84 84 82 82 83 82 80 76 76 76 76 76 76 76 76 76 76 75 74 72 71 71 71 70 70 70 70 69 70 74 75 73 74 74 71 70 67 64 63 61 57 54 51 50 49 48 47
69 72 75 78 79 79 81 86 86 82 82 80 75 71 70 68 64 62 64 71 76 78 78 76 73 70 67 65 67 71 75 78 80 81 82 82 82 83 83 84 84 83 82 82 82 83 82 81 80 79 78 78 79 79 78 76 77 78 75 73 72 72 72 72 71 72 72 73 73 74 76 75 74 74 74 72 71 70 68 66 63 60 58 55 53 52 50 49
68 71 72 75 77 76 79 85 83 81 83 79 74 72 71 68 65 62 64 72 80 80 78 76 74 71 67 64 62 65 70 75 75 76 77 78 79 81 82 83 84 83 81 80 82 84 83 81 81 82 81 81 81 81 78 76 78 78 75 74 74 73 73 72 72 73 73 74 76 76 76 77 76 73 71 72 72 72 71 68 65 63 62 59 57 55 53 50
68 70 71 73 75 73 75 80 81 82 83 76 73 75 74 71 69 67 70 78 84 82 78 75 72 70 68 66 62 61 65 68 69 70 72 72 74 77 78 81 81 80 79 79 81 83 80 78 80 81 81 82 81 80 78 76 77 77 76 76 75 73 72 71 72 73 74 76 77 77 76 79 78 71 69 71 70 71 72 69 67 66 65 63 60 57 54 51
69 71 72 72 72 72 72 75 77 78 78 76 75 76 75 72 71 71 76 84 86 83 79 76 73 71 69 66 63 61 61 63 65 66 66 66 69 71 73 75 76 76 75 75 77 76 75 75 77 78 79 79 78 77 76 75 76 76 76 75 74 73 72 71 72 73 73 77 79 78 76 78 78 71 70 72 69 68 71 70 69 68 67 66 62 59 56 53
68 70 72 71 72 73 72 72 73 73 74 76 77 77 76 74 76 77 82 86 85 81 80 79 77 72 68 65 63 61 60 61 62 62 63 63 64 65 67 69 70 72 72 73 74 73 73 74 75 77 79 78 76 75 75 75 75 74 73 73 72 72 72 71 72 72 72 79 81 78 75 77 80 74 70 72 67 64 68 70 71 70 68 67 65 63 60 58
64 66 68 71 73 74 72 69 69 71 74 77 77 77 76 77 80 84 87 85 81 80 79 78 78 73 68 65 62 60 59 58 57 59 62 62 62 64 65 66 68 70 71 72 73 71 71 73 75 78 79 78 76 76 77 76 75 72 70 71 71 70 70 69 72 72 75 82 82 79 75 77 82 78 71 71 68 65 66 68 71 71 70 69 67 65 63 61
60 60 61 66 70 72 70 65 64 69 75 77 77 77 79 81 82 86 87 82 78 82 80 74 72 68 66 63 59 57 55 54 55 56 58 60 62 63 63 64 65 67 71 73 72 71 72 72 73 74 76 76 76 76 77 75 74 71 67 67 69 69 68 70 75 78 82 85 81 79 78 79 84 81 73 71 70 69 67 67 69 71 71 70 68 66 64 63
59 57 57 61 66 68 66 62 62 65 71 76 77 78 82 86 87 86 85 82 80 80 77 72 67 62 62 62 60 58 56 56 56 54 54 57 59 60 61 61 61 62 65 65 66 69 70 70 70 71 73 74 75 76 76 75 75 74 69 66 67 70 70 73 77 80 83 85 82 81 80 82 86 82 75 74 72 70 68 67 69 70 70 71 70 69 67 64
59 58 58 60 63 66 65 64 64 64 69 76 78 82 87 89 90 88 85 83 81 77 73 71 68 64 63 63 60 59 59 58 56 53 54 55 57 58 59 60 60 61 61 60 61 63 65 67 69 70 71 72 73 74 74 73 73 73 70 67 68 69 69 72 75 76 79 80 79 78 80 84 87 82 77 76 73 71 70 68 70 70 69 70 70 70 68 65
58 60 59 59 63 67 67 67 67 67 72 77 79 86 92 88 86 89 88 84 81 78 73 70 68 67 66 64 61 59 58 58 56 56 57 56 55 55 56 57 58 59 60 60 62 61 62 65 64 63 64 63 65 67 68 69 69 69 68 68 69 68 68 70 72 72 72 73 74 76 78 82 84 81 79 77 75 74 72 69 69 70 69 69 68 68 67 66
57 59 60 61 64 67 68 69 68 69 75 78 80 88 95 88 81 85 86 83 82 80 76 72 69 67 66 65 62 57 55 55 55 56 56 53 53 54 54 55 54 56 57 58 59 59 62 63 59 59 61 60 59 60 61 65 67 68 69 70 69 67 66 68 69 68 68 70 73 73 74 76 78 81 82 77 76 78 76 72 69 69 70 69 69 68 68 67
58 61 61 62 64 66 68 69 69 70 76 80 80 87 92 88 82 82 82 81 81 79 76 74 72 68 65 64 61 56 54 54 55 55 53 52 53 53 53 53 53 53 52 52 55 56 58 58 55 56 59 58 57 56 57 60 62 65 68 67 66 66 66 66 66 66 65 69 71 68 69 69 71 81 85 79 77 78 76 74 71 70 71 70 70 69 68 68
60 62 62 62 64 67 67 68 70 72 78 82 81 84 89 88 83 81 81 80 78 75 73 72 70 66 64 62 60 58 55 54 54 54 53 53 52 49 48 51 52 52 50 50 53 52 52 52 51 52 54 53 53 56 58 59 60 63 64 63 65 68 69 67 67 66 64 66 68 68 70 71 70 77 84 80 76 76 75 74 71 69 71 71 71 71 69 68
63 64 63 62 64 67 68 69 71 73 77 82 81 81 85 86 80 78 79 78 74 71 70 69 66 63 60 58 58 57 56 55 54 53 52 51 49 46 47 49 50 50 50 51 51 49 49 50 49 49 50 50 52 56 58 58 59 63 65 66 69 70 69 69 71 71 70 70 69 68 71 75 75 75 76 74 72 69 67 69 70 68 69 70 71 70 69 67
64 64 62 63 65 68 70 71 72 74 77 81 78 75 80 81 77 75 76 74 71 69 68 66 64 61 58 56 55 55 54 53 53 52 51 49 46 46 47 48 49 49 50 51 50 49 49 50 48 47 48 50 53 55 55 54 57 62 66 67 70 71 70 71 72 71 71 73 74 72 72 75 76 73 69 68 68 66 63 63 64 64 63 65 66 67 67 66
64 63 61 64 66 68 70 72 73 74 76 79 75 72 76 79 76 75 74 73 70 68 66 65 63 61 58 56 55 53 52 51 51 50 49 47 45 45 45 46 48 48 49 51 50 49 50 51 50 49 49 50 51 50 49 50 54 60 65 66 68 71 72 74 74 70 66 67 69 70 70 71 73 71 67 65 64 65 64 63 61 60 59 58 59 61 62 62
63 61 60 63 66 68 70 71 72 73 74 77 75 71 75 79 76 72 71 71 70 69 68 66 63 60 57 55 54 52 50 49 48 47 45 43 41 42 43 44 46 47 49 50 48 47 49 51 53 54 53 50 49 48 48 50 52 57 63 66 68 70 73 78 80 74 67 63 62 64 64 63 62 62 63 63 62 60 60 59 57 58 58 57 56 57 57 57
60 58 56 59 63 67 70 69 69 72 73 72 71 71 76 78 73 68 67 68 68 69 68 66 63 59 56 54 52 51 50 48 46 45 43 42 41 43 43 43 44 45 46 47 46 46 48 50 52 53 54 53 53 52 52 52 55 56 58 62 67 71 73 76 80 79 75 70 64 64 67 63 57 53 53 56 58 57 55 54 52 52 54 57 57 57 56 55
58 57 56 58 59 62 67 68 68 72 72 68 68 74 77 75 70 65 64 66 66 65 65 64 61 58 55 52 50 49 49 47 46 44 42 41 41 42 42 42 42 42 43 43 44 45 47 48 48 50 53 54 55 56 56 56 58 58 56 55 59 65 70 75 79 81 82 81 74 69 70 66 59 54 53 53 55 56 55 55 53 51 51 54 56 56 55 55
56 56 55 57 58 59 62 63 66 72 71 68 71 75 74 70 67 63 62 65 65 62 61 61 60 57 54 52 49 48 48 47 45 43 41 41 41 41 42 41 41 40 40 41 41 43 45 46 47 49 52 52 52 54 55 54 55 58 60 57 52 53 59 66 73 80 85 87 82 78 76 72 64 60 59 59 59 60 60 59 57 55 53 55 56 56 56 55
54 56 56 56 58 61 61 60 66 71 71 69 71 72 69 67 65 63 63 66 66 63 62 60 59 58 54 51 49 47 47 45 43 42 41 41 41 41 41 41 40 40 41 42 43 44 46 47 48 49 49 48 46 47 49 51 53 56 61 63 59 54 52 54 60 70 79 83 84 82 79 75 71 67 65 65 64 64 65 64 62 59 56 56 56 58 58 58
51 53 57 56 56 60 61 62 67 69 66 65 65 67 68 66 63 63 65 67 66 65 64 62 61 59 54 51 49 47 45 43 41 41 41 41 41 41 41 41 41 42 42 43 45 46 48 49 48 48 48 46 45 46 47 49 52 55 59 64 67 65 61 59 58 60 66 74 81 83 77 73 73 71 67 67 68 66 65 65 65 64 62 59 57 58 59 60
48 49 54 54 54 57 59 62 69 68 62 60 62 63 64 62 56 56 62 67 67 64 63 63 61 57 53 51 49 47 45 43 40 40 39 40 41 41 42 42 42 42 43 43 45 46 47 47 46 46 47 46 47 48 48 48 51 55 57 61 66 69 70 70 67 61 61 66 73 75 75 73 73 71 68 66 68 69 67 67 67 67 66 65 63 62 60 60
47 47 51 53 52 53 53 56 64 66 62 60 62 61 59 56 50 48 54 60 62 61 59 58 57 54 51 50 47 45 43 40 38 38 38 39 41 41 41 41 41 41 41 41 41 42 43 45 45 46 46 46 46 46 46 47 49 52 55 58 63 67 71 73 73 68 65 66 66 65 69 69 65 65 68 67 67 69 70 69 69 69 69 69 68 66 63 61
46 46 49 51 51 51 52 52 56 61 61 59 58 56 54 52 49 47 49 52 53 54 54 52 51 50 49 47 44 41 38 36 35 35 35 37 37 37 37 37 36 36 37 37 37 37 38 40 41 43 45 47 48 48 47 48 49 50 53 55 59 64 69 73 75 74 72 72 69 65 67 68 60 58 63 65 66 69 70 69 69 69 70 70 69 66 64 62
46 45 45 45 46 49 53 54 54 59 62 59 54 51 51 51 50 49 50 50 49 50 51 51 50 48 47 43 40 38 37 37 36 35 34 34 32 31 31 32 32 31 31 32 32 33 35 35 34 35 39 43 44 45 48 50 52 54 54 53 54 58 63 68 72 74 75 77 77 74 72 69 62 59 60 60 63 68 71 71 70 70 70 71 70 67 65 63
45 46 45 44 43 45 50 53 56 61 62 57 52 51 52 53 53 52 52 52 49 48 49 50 49 46 43 39 37 37 38 38 38 36 36 36 34 32 31 30 31 30 29 29 30 31 32 32 31 30 33 36 36 37 40 43 49 54 54 51 51 53 57 62 67 72 74 76 79 81 79 73 66 62 61 58 59 65 68 69 69 69 69 72 72 70 66 64
Wind_Direction
234 233 233 233 233 233 233 233 233 233 233 233 233 233 234 234 235 234 234 233 233 234 234 234 234 235 235 235 235 236 236 237 238 238 239 238 239 240 241 243 244 244 245 245 245 246 246 247 249 249 249 248 247 247 245 245 245 246 247 247 246 244 246 247 247 249 250 249 247 241 237 241 239 233 231 231 233 235 239 241 242 244 246 248 250 248 245 242
234 233 233 233 233 233 233 233 233 233 233 233 233 233 234 234 235 235 236 235 234 234 235 235 235 235 235 236 236 236 236 236 237 238 239 238 237 238 239 241 242 243 244 245 245 246 246 246 247 249 249 249 248 248 247 245 245 245 246 247 245 244 245 246 248 251 253 251 248 243 237 237 238 233 230 231 233 233 235 237 239 241 244 247 249 251 249 245
235 234 233 233 232 233 233 233 233 233 233 233 233 234 234 234 234 235 236 236 236 235 236 236 236 236 236 236 237 237 237 237 237 237 238 238 236 236 237 238 240 241 242 243 244 245 246 246 247 247 248 249 249 249 249 247 246 246 246 247 247 245 243 244 248 250 252 253 250 245 238 235 236 233 230 231 233 234 236 235 236 239 242 247 250 252 252 249
236 235 234 233 232 232 232 233 233 233 233 233 234 234 234 234 235 235 235 236 237 236 236 237 237 237 237 237 237 238 238 238 238 237 238 238 236 236 237 236 238 240 240 241 243 244 245 246 246 246 247 248 249 249 250 249 249 248 247 248 247 245 243 243 247 249 251 254 253 249 241 235 234 232 229 229 230 235 238 234 233 236 238 243 246 250 252 252
237 236 235 233 232 232 232 232 232 233 233 234 234 234 234 234 235 235 236 236 237 237 237 237 237 238 238 237 238 238 239 239 238 237 238 238 238 237 238 238 237 238 239 240 241 243 244 246 247 247 247 247 248 249 250 251 251 250 249 249 248 246 244 243 246 248 249 252 253 251 245 237 232 230 229 228 227 233 238 233 230 233 236 239 243 246 249 250
238 237 236 235 233 232 231 231 232 232 233 233 234 235 235 235 235 235 236 236 237 237 237 237 237 238 238 238 238 238 239 240 239 238 238 239 239 239 239 240 239 238 239 239 240 241 243 244 246 247 248 248 248 250 251 252 252 251 250 249 249 248 246 244 245 246 247 249 251 252 249 242 235 229 229 227 223 231 238 233 229 231 233 235 240 244 246 247
238 238 237 236 235 234 233 232 231 231 232 232 233 234 235 235 235 235 235 236 236 237 237 238 237 238 238 239 238 238 239 240 241 240 240 241 241 240 240 241 242 241 240 241 241 241 242 244 246 247 249 249 249 249 251 252 252 252 251 251 251 250 248 246 245 246 246 248 250 251 251 248 241 231 227 225 223 231 237 233 229 230 232 233 236 241 243 245
238 237 237 237 236 235 234 233 232 231 232 232 232 233 234 235 236 236 236 236 236 237 237 238 238 238 238 239 239 239 238 240 243 243 241 241 241 241 241 241 242 243 242 242 242 243 243 243 244 246 247 248 248 249 250 251 251 251 251 252 252 251 249 247 245 245 245 246 248 249 250 250 248 238 227 223 225 231 236 234 230 229 231 233 235 238 240 243
237 237 237 236 236 236 235 235 234 233 232 232 232 232 233 234 235 236 236 237 237 237 237 238 238 237 237 238 239 239 238 238 242 244 242 241 240 240 240 240 241 242 242 242 242 242 242 242 243 245 246 247 248 248 249 250 249 249 251 252 251 251 250 248 246 245 246 245 246 248 250 251 251 245 229 222 230 233 236 236 231 229 229 233 235 237 239 241
237 236 236 236 236 235 235 235 235 234 234 233 232 232 233 234 235 235 236 237 237 237 237 238 238 238 238 238 238 239 238 237 240 244 244 242 240 240 241 241 242 242 243 243 243 243 242 242 242 244 245 246 246 247 248 249 249 249 250 251 251 250 250 249 247 247 247 247 247 248 249 249 250 247 234 226 235 236 236 236 232 230 229 232 235 237 239 240
238 237 236 236 235 235 235 235 234 234 234 234 233 233 233 234 234 235 235 236 237 238 238 238 238 238 238 238 238 238 237 237 239 242 245 245 242 241 241 242 243 243 244 244 245 245 244 243 242 242 243 243 244 245 246 247 249 250 250 250 250 251 250 249 249 248 248 248 247 248 248 247 246 246 239 234 238 237 235 235 234 231 229 232 234 237 239 240
238 237 237 236 235 235 234 234 234 234 234 234 234 233 233 234 234 235 235 236 237 237 238 238 238 238 238 238 238 238 237 237 238 240 243 246 245 243 242 242 243 244 244 244 245 245 245 244 244 243 243 243 243 244 244 245 247 248 248 249 249 250 250 249 250 250 250 249 248 249 248 245 246 246 242 238 240 239 236 235 235 233 230 232 234 236 238 240
237 237 237 236 236 235 235 234 234 234 234 234 234 233 233 234 234 235 235 236 236 237 237 238 238 238 239 238 238 238 238 238 238 238 241 245 247 246 244 243 242 243 244 245 244 245 245 245 245 245 244 244 243 243 243 243 244 245 246 248 248 248 248 248 250 250 251 250 251 252 248 245 247 248 242 239 242 244 241 237 235 234 232 232 233 236 237 239
237 236 236 236 236 236 235 235 235 234 234 234 234 234 234 234 234 234 235 236 236 237 237 237 237 238 239 238 238 238 238 238 239 239 240 243 246 247 247 245 244 243 244 245 245 245 245 245 245 245 245 245 245 245 244 244 244 244 245 246 247 247 246 247 249 250 251 251 252 254 248 244 247 247 242 241 244 246 246 243 237 235 235 234 233 235 237 239
237 236 236 236 236 236 236 235 235 235 235 234 235 235 235 236 236 236 236 236 236 237 237 237 237 237 238 238 237 238 239 239 241 242 242 243 245 247 248 248 247 245 245 245 246 246 246 246 245 245 245 246 246 246 246 246 245 244 245 245 246 246 246 246 248 250 251 251 251 253 248 244 245 246 244 243 244 245 246 246 243 237 235 236 234 234 236 238
237 237 236 235 235 235 235 235 235 235 235 235 235 235 235 236 237 238 238 239 239 239 237 236 237 237 238 237 237 237 239 241 242 243 243 244 245 247 248 249 249 248 247 246 246 246 246 246 245 245 244 245 246 247 247 247 245 244 244 244 245 246 246 247 247 248 251 251 250 250 248 246 246 245 243 244 244 245 245 246 246 243 237 236 236 235 235 237
237 237 236 235 235 234 234 234 234 235 235 235 235 236 236 237 238 239 239 240 241 242 240 237 237 237 237 237 237 238 240 241 242 243 243 244 245 246 247 248 249 249 248 247 247 246 246 247 247 246 245 244 244 246 246 245 244 244 244 244 244 246 246 247 248 248 250 251 251 250 249 247 248 246 243 245 245 245 245 245 247 247 242 238 237 237 236 237
235 235 236 235 235 234 233 233 233 234 234 234 235 235 236 237 237 237 238 240 241 242 242 239 237 237 237 238 240 241 241 242 242 243 244 244 245 245 245 246 247 248 248 248 247 247 246 247 247 246 245 245 244 245 247 247 246 246 247 247 247 248 248 247 249 248 248 251 252 252 251 250 250 250 247 246 247 247 246 245 246 248 247 243 241 240 239 238
234 233 234 234 234 234 233 233 233 233 233 233 234 234 235 236 236 235 236 239 240 241 243 241 239 239 240 241 241 241 242 241 241 242 243 244 244 244 244 244 246 247 248 248 247 248 247 247 247 247 246 247 247 248 249 250 250 251 251 250 249 249 248 247 248 248 248 251 252 253 254 253 253 253 252 249 248 248 247 246 244 246 248 248 246 244 241 240
234 233 232 232 233 233 233 232 232 232 232 232 232 231 232 232 232 232 232 235 238 241 244 244 242 241 240 239 238 239 240 240 240 241 242 242 243 243 244 244 244 245 246 247 248 249 249 248 247 248 250 251 252 251 251 251 251 251 251 250 248 248 248 247 247 248 248 250 251 252 253 254 253 253 253 252 249 248 248 247 245 245 248 249 249 248 244 241
235 234 232 231 231 231 232 231 231 231 231 231 231 229 228 229 230 231 232 233 234 237 241 243 242 241 239 237 236 237 238 239 239 240 241 241 242 242 243 244 244 244 246 248 248 248 248 248 248 250 252 253 253 252 251 250 249 248 248 249 248 247 248 247 246 247 248 248 247 249 251 251 251 251 251 251 250 248 248 247 247 246 246 248 249 250 249 245
234 234 233 232 231 230 230 230 230 229 230 230 230 229 228 228 231 233 233 235 236 236 239 241 242 241 240 237 236 236 237 238 239 239 240 241 241 242 243 244 244 245 245 246 246 247 248 248 250 252 252 252 252 251 251 249 248 247 247 247 247 247 247 248 247 247 248 247 245 246 249 248 250 250 249 249 249 248 248 248 248 247 247 248 250 251 252 250
234 233 232 232 231 230 229 229 229 228 228 228 228 229 229 228 229 231 231 234 238 239 240 241 243 243 242 239 238 237 237 238 239 239 239 240 240 241 242 243 244 245 245 245 246 247 248 250 252 252 251 251 251 252 251 251 250 249 248 248 249 249 249 249 249 249 249 249 247 247 247 246 247 249 248 248 247 247 248 248 248 248 247 249 251 252 252 253
232 232 231 231 230 229 228 228 228 227 227 227 227 228 229 228 228 228 230 232 234 236 239 241 242 243 242 240 238 237 237 238 239 239 240 240 241 241 241 243 244 245 245 245 247 248 249 251 251 250 250 250 251 251 252 252 253 253 252 251 251 251 252 251 251 251 251 251 250 249 249 245 244 247 247 247 247 246 247 247 247 247 247 248 250 251 252 252
231 231 230 230 229 229 228 227 227 226 225 226 226 226 226 227 227 227 228 232 232 233 236 238 239 240 240 239 237 236 237 237 237 239 240 241 241 241 241 242 243 244 245 246 247 248 249 249 248 247 248 249 249 250 251 252 253 253 253 253 253 253 252 252 252 252 252 251 250 250 251 246 242 245 245 246 247 245 245 246 245 246 246 246 247 249 251 251
228 228 228 228 228 227 226 226 225 225 225 225 224 224 224 223 222 222 225 231 233 232 233 235 237 238 239 239 237 236 236 236 236 238 239 240 241 241 241 242 242 243 244 245 246 246 246 246 247 247 247 248 248 249 250 250 252 253 253 254 254 253 253 253 252 252 252 252 251 250 251 248 243 243 243 244 246 245 245 245 244 245 246 246 245 246 249 251
226 226 226 226 225 224 224 225 225 223 223 222 221 221 222 221 219 217 220 229 232 230 231 234 236 237 238 238 238 237 237 237 237 238 239 239 239 240 240 241 242 243 243 244 244 244 245 245 246 247 247 247 247 248 249 249 250 251 252 253 254 254 254 253 252 252 252 252 252 251 251 250 246 242 242 243 244 245 244 244 244 245 246 247 246 246 247 250
226 225 224 224 223 222 222 224 223 222 222 221 220 220 219 219 220 217 217 225 230 229 228 231 234 234 235 235 235 236 238 238 239 240 240 240 240 240 240 240 241 242 243 243 245 246 246 245 246 246 247 247 247 248 248 248 249 250 251 251 253 254 254 253 253 254 254 253 252 251 251 252 249 243 244 244 242 243 244 243 244 245 246 248 248 247 247 249
226 226 224 223 223 222 222 222 220 220 220 219 217 216 216 216 217 217 219 224 229 229 227 228 230 230 231 232 234 236 238 237 237 238 240 241 241 241 240 240 241 242 242 243 244 245 245 245 245 245 245 246 247 248 248 248 249 250 250 251 252 253 253 253 253 253 253 252 251 251 251 254 252 246 246 246 242 242 244 244 245 246 247 249 249 250 249 249
226 226 225 224 223 222 221 220 218 216 215 214 213 213 212 213 213 214 219 222 226 229 228 227 227 229 230 231 233 234 236 237 237 237 238 238 239 240 240 239 239 240 240 242 242 242 242 242 242 243 243 244 245 247 247 248 248 249 249 250 251 252 252 252 253 252 250 250 251 252 253 256 255 249 247 249 245 242 245 246 247 247 247 248 249 250 250 249
224 224 224 224 223 221 219 217 215 213 211 210 210 209 209 210 212 214 217 219 222 226 228 227 226 227 229 231 232 234 236 238 238 238 238 239 239 239 238 237 236 237 239 240 241 241 241 241 241 241 242 242 242 243 245 245 246 247 247 248 248 250 250 249 250 249 247 249 252 255 254 255 255 249 246 250 248 245 245 245 246 247 247 248 249 249 249 249
222 221 220 221 221 220 217 214 213 212 210 207 204 205 205 206 210 215 217 216 219 225 226 225 225 225 226 229 231 233 235 236 237 238 238 240 241 242 242 241 240 239 240 241 242 241 241 240 241 241 241 241 240 240 241 242 243 244 244 245 245 247 248 248 248 248 248 251 254 256 254 252 252 250 247 249 249 247 246 245 246 246 247 248 249 249 250 250
221 218 216 217 217 216 213 210 211 211 209 205 201 201 203 205 208 212 215 215 217 224 226 224 225 225 225 227 229 230 231 234 236 237 238 240 241 243 243 243 242 242 243 244 244 244 242 241 241 240 240 240 240 240 241 241 242 243 241 241 242 243 245 246 249 249 251 253 253 254 253 251 252 251 248 249 250 249 248 247 248 247 246 247 248 249 249 249
217 214 213 213 213 211 208 206 206 205 204 204 202 200 202 207 209 209 212 213 216 223 226 224 224 225 226 228 230 231 233 235 236 237 238 239 240 241 241 241 241 241 242 242 242 243 243 243 243 243 244 244 244 243 243 243 243 243 242 242 242 243 244 246 249 251 253 255 254 252 250 252 254 252 250 252 253 253 251 248 249 249 247 247 247 248 249 249
211 210 210 210 208 205 204 204 203 201 201 201 203 202 201 205 211 211 210 211 214 219 222 222 223 224 227 228 228 230 233 236 237 237 236 237 239 240 241 242 242 242 242 241 241 242 243 243 243 245 246 245 245 245 244 243 241 241 241 239 240 242 245 248 250 251 254 256 256 254 252 255 257 255 254 255 255 255 255 252 251 251 250 249 248 248 249 249
206 207 207 207 205 203 202 203 201 200 200 200 203 204 201 202 209 212 212 211 213 216 217 218 219 221 224 225 225 227 230 233 235 235 236 237 238 239 239 241 241 242 242 244 245 245 246 246 245 244 244 241 240 241 241 241 241 241 241 240 240 241 244 247 248 249 251 253 255 255 255 257 258 255 253 254 254 255 256 254 253 252 252 251 250 248 248 247
201 203 204 203 202 202 202 201 199 199 199 200 204 205 201 201 205 210 212 212 214 216 216 217 218 219 221 223 224 226 228 229 229 230 233 236 238 238 239 240 240 241 243 245 246 246 246 248 245 243 244 243 240 238 237 238 239 240 240 242 243 241 239 241 245 246 248 251 253 254 255 256 256 254 252 253 254 255 255 255 254 253 253 252 252 250 249 247
198 199 201 200 200 201 201 199 199 200 199 201 205 206 203 203 204 207 209 211 213 216 217 218 219 220 222 223 223 225 228 230 229 229 232 235 238 239 241 241 241 241 242 242 244 244 245 246 244 241 242 241 238 235 233 233 235 237 238 238 238 236 235 236 239 242 244 248 251 252 253 254 254 253 253 253 254 255 256 256 256 254 253 253 252 252 251 250
196 197 198 198 198 199 199 198 199 201 201 201 203 205 204 203 204 206 208 210 212 215 217 218 218 220 223 224 225 227 230 232 232 232 235 238 240 241 241 240 240 240 240 240 241 241 241 242 241 239 238 236 234 233 232 232 232 234 235 233 233 233 234 234 237 240 242 245 248 249 251 252 253 253 253 253 254 255 255 256 256 255 253 252 252 253 253 253
195 195 195 195 195 197 197 198 200 201 201 199 200 203 204 204 204 206 208 210 212 215 217 217 218 219 221 224 226 228 231 233 234 235 238 241 243 243 242 241 240 240 239 239 239 237 236 237 238 238 236 234 234 235 235 234 232 232 233 233 233 232 232 232 234 237 241 243 246 248 249 251 254 255 253 252 252 254 254 253 253 254 253 252 252 253 254 255
193 193 193 192 192 194 195 197 200 200 199 198 199 202 204 203 203 205 208 211 212 215 216 217 218 219 220 223 226 228 231 233 234 236 239 241 243 244 243 241 241 240 238 238 239 237 235 235 234 235 235 233 234 236 236 235 234 233 233 234 234 234 233 232 232 233 236 240 242 246 248 249 252 253 252 251 251 252 252 251 250 252 253 252 252 252 253 254
190 191 190 190 192 193 194 197 199 198 198 199 200 201 201 201 203 206 209 210 211 212 214 216 217 219 221 224 227 230 233 234 234 236 238 240 242 242 240 238 239 239 238 238 239 238 237 235 233 232 233 233 233 234 233 232 232 234 235 233 233 234 233 233 234 233 234 238 239 242 244 244 246 249 250 250 250 250 251 250 249 249 250 250 250 250 250 251
186 187 186 188 193 194 194 196 198 197 197 200 200 199 198 199 204 208 209 209 209 211 212 214 217 219 221 223 226 229 232 233 234 236 238 238 238 237 236 236 237 237 237 238 238 236 235 235 235 235 236 235 234 232 231 229 228 230 234 234 234 234 234 235 236 235 236 238 239 240 242 240 239 243 246 246 246 246 246 247 246 245 247 248 247 247 248 249
182 184 185 188 192 196 196 195 195 194 196 199 199 196 195 199 205 208 208 209 210 211 212 214 216 218 220 223 225 228 229 230 232 234 235 235 235 235 235 235 235 235 236 238 239 238 237 236 237 237 237 237 236 234 232 229 227 227 229 231 233 234 235 237 237 236 236 238 239 240 244 243 236 235 239 241 241 241 241 243 244 243 244 245 246 247 247 248
180 182 186 188 190 194 198 197 194 192 193 196 196 195 195 198 204 207 207 208 209 209 211 213 215 217 219 221 223 224 226 227 229 230 231 230 230 230 232 232 232 232 232 234 235 236 236 237 237 237 237 237 237 238 237 235 233 231 230 229 228 230 232 235 237 237 236 238 239 240 244 245 239 233 235 238 240 241 241 243 246 246 244 244 247 248 248 248
178 179 183 186 189 192 195 196 195 193 192 192 194 196 198 199 203 206 206 206 207 209 211 214 215 216 217 219 221 221 222 224 226 228 229 228 227 227 228 228 228 227 227 229 231 232 233 234 234 236 238 239 240 242 242 240 238 236 234 232 230 229 230 232 234 235 236 238 240 240 243 246 242 235 234 236 237 240 242 245 248 249 245 243 245 248 249 248
180 182 183 184 186 191 193 193 193 192 192 193 195 199 201 202 205 207 206 206 207 209 210 213 215 216 215 215 217 219 222 224 226 227 228 227 226 226 226 226 226 227 227 228 230 232 234 234 234 236 238 239 240 241 240 240 239 237 236 235 234 233 233 233 234 233 234 238 239 239 242 247 245 238 233 234 236 238 241 245 248 248 247 246 246 247 247 247
182 186 186 185 187 190 191 190 188 188 192 196 198 201 202 204 208 210 208 208 209 210 210 211 212 215 215 214 215 219 222 224 224 225 227 229 228 227 227 227 227 227 228 230 232 234 236 237 236 236 237 238 240 240 239 238 239 237 237 237 237 238 237 238 238 235 233 237 239 238 240 246 248 242 236 235 238 240 241 244 245 246 247 249 249 247 246 246
180 184 184 186 189 189 187 188 188 189 193 196 198 200 203 205 207 208 207 207 209 211 212 212 211 211 212 213 215 219 222 225 227 229 229 229 228 226 227 229 230 231 233 234 236 237 238 239 237 237 238 237 239 240 239 239 240 240 239 239 239 240 240 240 240 239 238 239 241 239 238 241 244 244 240 238 240 242 241 242 242 244 246 248 249 249 247 245
179 181 182 184 187 186 186 188 191 195 196 196 196 199 203 206 206 204 204 205 208 210 211 212 211 210 209 211 213 216 219 223 227 230 229 228 227 229 231 233 236 237 238 238 239 238 238 239 238 238 239 239 240 243 242 242 244 243 242 241 242 241 241 241 241 241 243 245 246 244 241 239 239 242 243 240 239 242 241 240 241 243 245 247 248 248 246 244
178 179 181 185 185 184 185 187 192 197 196 194 196 199 202 205 206 206 207 208 211 215 216 212 207 206 207 209 214 217 217 215 215 217 220 222 224 230 235 236 236 236 236 238 238 237 238 240 239 238 240 240 241 243 244 244 246 246 244 243 244 244 244 243 243 244 246 248 250 250 248 244 241 242 243 239 237 240 242 241 242 243 244 246 247 247 246 245
177 178 181 185 187 186 187 188 191 194 195 196 198 200 201 205 207 210 213 215 214 214 212 206 200 201 205 208 211 213 210 209 210 212 214 216 216 219 223 226 227 227 228 229 231 232 234 238 238 238 240 241 240 241 243 245 246 246 245 245 247 249 248 247 246 247 248 250 251 252 252 250 245 242 241 239 238 240 242 242 242 242 244 245 246 246 247 246
Height
5721 5724 5727 5730 5733 5736 5739 5742 5746 5749 5752 5755 5758 5761 5764 5766 5769 5771 5774 5777 5780 5782 5784 5787 5790 5793 5795 5797 5801 5804 5807 5810 5813 5817 5822 5828 5830 5831 5833 5834 5836 5839 5841 5843 5845 5846 5848 5850 5852 5854 5856 5857 5859 5860 5862 5863 5864 5865 5866 5868 5871 5876 5878 5878 5877 5877 5878 5878 5880 5882 5883 5883 5884 5885 5885 5886 5886 5887 5888 5889 5889 5890 5890 5890 5891 5892 5892 5892
5714 5717 5720 5723 5726 5729 5732 5735 5739 5742 5745 5749 5752 5755 5758 5761 5763 5766 5769 5771 5775 5778 5780 5782 5785 5788 5790 5793 5796 5799 5802 5805 5808 5814 5820 5823 5825 5825 5828 5829 5831 5834 5836 5838 5840 5842 5844 5846 5848 5850 5851 5853 5855 5857 5858 5860 5861 5862 5864 5865 5869 5874 5876 5875 5875 5876 5876 5876 5877 5879 5881 5882 5882 5883 5884 5884 5885 5885 5886 5887 5888 5888 5889 5889 5890 5890 5891 5891
5706 5710 5713 5716 5719 5722 5725 5729 5732 5736 5739 5742 5746 5749 5752 5755 5758 5761 5763 5766 5769 5773 5775 5777 5780 5783 5785 5788 5791 5794 5797 5799 5805 5812 5815 5816 5819 5820 5822 5824 5826 5829 5832 5834 5836 5838 5840 5842 5844 5846 5848 5849 5851 5854 5855 5857 5858 5860 5861 5863 5868 5872 5873 5873 5873 5874 5873 5873 5875 5877 5879 5880 5880 5881 5882 5883 5883 5884 5884 5885 5886 5887 5888 5888 5889 5889 5890 5890
5698 5702 5705 5709 5712 5715 5718 5722 5725 5729 5732 5736 5739 5742 5745 5748 5752 5755 5757 5760 5763 5766 5770 5772 5774 5777 5781 5784 5787 5789 5791 5794 5801 5808 5809 5809 5813 5815 5817 5820 5822 5824 5827 5830 5832 5834 5835 5837 5839 5842 5844 5845 5848 5850 5851 5854 5856 5857 5859 5861 5866 5869 5869 5871 5871 5871 5871 5871 5872 5874 5876 5877 5878 5879 5880 5880 5882 5882 5881 5883 5884 5885 5886 5887 5887 5888 5888 5889
5689 5693 5697 5701 5705 5708 5711 5715 5718 5722 5725 5729 5732 5735 5739 5742 5745 5748 5751 5754 5757 5760 5764 5767 5769 5772 5775 5779 5782 5784 5786 5790 5797 5802 5803 5804 5808 5811 5813 5814 5817 5819 5822 5825 5827 5829 5831 5833 5835 5837 5839 5842 5844 5846 5848 5851 5853 5854 5856 5859 5863 5864 5866 5869 5868 5868 5869 5869 5870 5871 5873 5874 5876 5877 5878 5878 5880 5879 5879 5881 5883 5883 5884 5885 5886 5886 5887 5887
5680 5684 5688 5692 5697 5701 5704 5708 5712 5714 5718 5722 5725 5728 5731 5735 5739 5742 5745 5748 5751 5754 5757 5760 5764 5766 5770 5773 5776 5779 5782 5786 5792 5796 5798 5800 5804 5807 5809 5810 5813 5815 5817 5820 5823 5825 5827 5829 5831 5833 5835 5838 5841 5843 5845 5848 5849 5850 5853 5856 5859 5861 5864 5866 5865 5865 5865 5866 5867 5868 5870 5872 5873 5875 5875 5877 5878 5876 5876 5879 5881 5881 5882 5883 5883 5884 5885 5886
5670 5675 5679 5684 5688 5692 5697 5701 5704 5708 5711 5715 5718 5722 5725 5728 5732 5735 5738 5741 5744 5747 5750 5754 5757 5761 5764 5767 5770 5773 5778 5784 5787 5791 5794 5796 5800 5803 5804 5806 5809 5811 5814 5816 5819 5822 5824 5826 5828 5829 5831 5834 5837 5839 5842 5844 5845 5846 5849 5852 5855 5857 5861 5863 5862 5862 5862 5863 5865 5865 5867 5869 5871 5873 5874 5875 5876 5874 5874 5877 5878 5879 5880 5880 5881 5882 5883 5884
5661 5665 5670 5675 5679 5684 5688 5692 5696 5701 5704 5708 5712 5715 5718 5721 5725 5729 5732 5734 5738 5740 5743 5747 5750 5755 5758 5760 5764 5768 5776 5783 5783 5785 5788 5790 5794 5797 5799 5802 5804 5807 5810 5812 5815 5818 5820 5823 5824 5825 5827 5828 5832 5835 5838 5839 5840 5842 5845 5849 5852 5853 5856 5859 5858 5858 5859 5860 5861 5862 5864 5867 5869 5870 5872 5875 5873 5871 5871 5874 5876 5877 5878 5878 5879 5880 5881 5882
5651 5655 5661 5665 5670 5675 5680 5684 5688 5693 5696 5701 5705 5709 5712 5715 5718 5722 5725 5727 5730 5733 5736 5740 5742 5747 5751 5754 5758 5763 5774 5781 5778 5777 5779 5784 5789 5790 5793 5797 5800 5802 5804 5807 5809 5812 5815 5818 5820 5821 5822 5823 5827 5830 5832 5834 5835 5839 5842 5845 5847 5848 5851 5854 5854 5855 5856 5857 5858 5859 5861 5865 5866 5866 5871 5874 5871 5870 5870 5871 5874 5875 5876 5876 5876 5877 5878 5880
5640 5646 5651 5656 5661 5666 5671 5675 5680 5685 5688 5693 5698 5702 5705 5708 5711 5715 5718 5720 5723 5726 5729 5732 5735 5739 5743 5747 5751 5760 5772 5776 5773 5771 5770 5777 5783 5785 5789 5792 5795 5798 5799 5802 5805 5807 5810 5813 5815 5816 5817 5819 5822 5824 5827 5828 5830 5835 5838 5840 5841 5843 5847 5849 5850 5852 5853 5854 5855 5856 5858 5862 5862 5863 5870 5873 5869 5868 5868 5869 5871 5873 5874 5874 5874 5875 5876 5877
5629 5635 5640 5646 5652 5656 5662 5667 5671 5676 5680 5684 5690 5694 5698 5701 5704 5707 5711 5713 5716 5719 5721 5724 5727 5730 5735 5739 5745 5757 5767 5769 5768 5766 5763 5769 5776 5780 5784 5787 5790 5793 5795 5798 5800 5803 5805 5807 5809 5811 5811 5813 5817 5819 5821 5824 5827 5831 5833 5834 5836 5838 5842 5845 5847 5848 5849 5850 5852 5853 5854 5857 5858 5860 5870 5871 5866 5865 5865 5866 5868 5870 5871 5871 5872 5872 5874 5875
5618 5624 5630 5636 5641 5647 5653 5657 5663 5668 5672 5677 5681 5686 5690 5693 5696 5700 5703 5706 5709 5710 5713 5716 5717 5722 5726 5730 5742 5754 5760 5761 5761 5760 5760 5762 5768 5774 5779 5783 5786 5787 5790 5793 5795 5797 5799 5802 5804 5805 5807 5809 5812 5813 5816 5820 5822 5825 5827 5828 5830 5833 5837 5841 5843 5844 5846 5846 5849 5850 5848 5852 5854 5859 5868 5867 5862 5862 5862 5864 5865 5867 5869 5869 5870 5870 5871 5871
5607 5613 5619 5625 5631 5637 5643 5648 5654 5659 5664 5669 5673 5678 5682 5685 5689 5693 5695 5698 5700 5702 5705 5707 5709 5714 5715 5724 5741 5748 5751 5752 5751 5755 5758 5758 5761 5767 5772 5777 5780 5782 5784 5786 5789 5791 5793 5796 5798 5800 5803 5805 5806 5808 5811 5815 5817 5819 5822 5823 5825 5828 5832 5837 5839 5840 5842 5843 5846 5846 5843 5849 5852 5856 5864 5863 5859 5860 5860 5862 5863 5864 5865 5866 5867 5868 5868 5869
5595 5601 5607 5614 5620 5627 5633 5639 5644 5649 5655 5660 5665 5670 5674 5677 5681 5685 5688 5689 5691 5693 5695 5696 5700 5704 5706 5721 5736 5738 5741 5743 5744 5751 5755 5755 5757 5759 5763 5769 5773 5776 5779 5781 5782 5785 5787 5789 5792 5794 5798 5800 5802 5805 5807 5810 5813 5815 5816 5818 5821 5823 5827 5832 5834 5836 5838 5839 5843 5841 5839 5844 5848 5852 5859 5859 5857 5858 5858 5860 5861 5862 5862 5863 5864 5865 5866 5866
5583 5589 5596 5603 5609 5617 5622 5629 5635 5640 5646 5651 5657 5662 5666 5670 5673 5677 5679 5680 5683 5683 5684 5686 5690 5694 5699 5716 5729 5730 5733 5736 5742 5748 5750 5752 5753 5754 5757 5760 5765 5770 5773 5775 5776 5778 5781 5783 5785 5789 5792 5796 5798 5801 5803 5805 5809 5811 5813 5816 5818 5819 5822 5827 5830 5832 5833 5835 5838 5835 5833 5838 5842 5848 5854 5854 5854 5855 5856 5858 5858 5859 5860 5860 5861 5862 5863 5864
5572 5578 5585 5591 5598 5605 5612 5619 5626 5632 5637 5643 5648 5653 5658 5662 5664 5668 5671 5673 5673 5670 5671 5675 5681 5686 5692 5708 5721 5723 5727 5734 5741 5742 5744 5748 5748 5749 5751 5752 5756 5761 5765 5768 5769 5772 5774 5775 5778 5782 5787 5791 5793 5796 5799 5799 5803 5807 5809 5812 5814 5815 5818 5821 5825 5828 5828 5829 5831 5829 5828 5832 5836 5843 5849 5849 5850 5851 5853 5855 5856 5857 5858 5857 5858 5859 5860 5861
5562 5568 5574 5580 5587 5594 5601 5608 5616 5623 5628 5634 5640 5645 5650 5654 5656 5662 5664 5662 5658 5657 5660 5666 5673 5675 5679 5700 5715 5719 5726 5733 5736 5735 5737 5741 5741 5743 5744 5744 5748 5751 5756 5760 5762 5766 5767 5767 5771 5775 5780 5785 5788 5790 5790 5792 5798 5802 5803 5807 5810 5812 5814 5817 5819 5823 5825 5823 5823 5823 5824 5828 5830 5837 5845 5845 5846 5848 5849 5852 5853 5854 5855 5855 5854 5855 5856 5858
5553 5558 5564 5570 5577 5584 5591 5598 5606 5613 5619 5625 5631 5636 5642 5646 5649 5654 5653 5648 5647 5648 5647 5651 5658 5659 5673 5702 5715 5718 5725 5727 5728 5728 5729 5733 5734 5734 5735 5736 5740 5743 5747 5750 5753 5758 5759 5761 5763 5767 5772 5777 5782 5784 5785 5790 5795 5798 5801 5805 5808 5808 5810 5813 5812 5815 5819 5817 5817 5819 5820 5825 5827 5830 5839 5842 5842 5843 5845 5848 5850 5850 5850 5851 5851 5852 5854 5855
5543 5548 5555 5561 5567 5574 5581 5589 5596 5603 5610 5616 5621 5628 5633 5636 5639 5640 5637 5636 5637 5637 5636 5642 5652 5661 5684 5708 5711 5714 5719 5718 5720 5719 5719 5723 5723 5724 5725 5728 5734 5737 5738 5740 5745 5749 5752 5754 5755 5757 5764 5772 5779 5782 5785 5788 5792 5796 5799 5799 5801 5801 5801 5805 5804 5806 5812 5813 5812 5815 5817 5820 5823 5825 5832 5838 5838 5839 5841 5844 5846 5846 5846 5848 5849 5850 5851 5852
5532 5539 5546 5552 5558 5565 5572 5580 5587 5594 5600 5605 5611 5617 5618 5620 5622 5620 5624 5630 5634 5636 5637 5643 5653 5665 5682 5694 5696 5704 5707 5705 5709 5709 5708 5711 5715 5717 5717 5721 5727 5728 5729 5735 5740 5743 5744 5744 5746 5753 5764 5773 5777 5779 5781 5783 5786 5791 5790 5789 5792 5793 5793 5797 5799 5799 5804 5806 5808 5811 5811 5812 5817 5819 5823 5830 5833 5834 5835 5838 5841 5843 5843 5844 5846 5847 5848 5849
5522 5529 5535 5542 5550 5556 5563 5571 5578 5585 5590 5594 5600 5601 5602 5607 5610 5613 5624 5630 5632 5634 5632 5635 5646 5653 5663 5676 5686 5693 5694 5692 5697 5700 5699 5702 5708 5709 5708 5714 5719 5719 5727 5734 5734 5734 5734 5733 5741 5756 5766 5769 5768 5770 5773 5774 5778 5781 5779 5781 5784 5785 5787 5791 5793 5794 5796 5797 5803 5805 5802 5804 5809 5812 5816 5821 5827 5829 5830 5833 5836 5839 5840 5840 5842 5843 5845 5846
5511 5517 5525 5533 5539 5547 5555 5561 5568 5575 5579 5583 5586 5586 5594 5605 5610 5619 5628 5626 5625 5628 5626 5630 5637 5639 5650 5667 5677 5682 5683 5682 5687 5690 5691 5693 5697 5699 5703 5708 5708 5713 5723 5725 5722 5724 5723 5726 5742 5759 5762 5760 5759 5761 5762 5764 5768 5770 5772 5774 5776 5780 5782 5783 5786 5788 5788 5790 5796 5797 5794 5797 5801 5803 5808 5813 5819 5823 5825 5828 5832 5834 5836 5837 5839 5840 5842 5844
5500 5507 5515 5521 5529 5539 5546 5552 5560 5564 5566 5569 5573 5579 5593 5605 5609 5615 5620 5619 5621 5622 5620 5624 5628 5632 5645 5657 5667 5673 5674 5674 5679 5681 5683 5684 5689 5695 5698 5699 5701 5708 5713 5713 5715 5716 5716 5726 5746 5755 5751 5750 5753 5753 5753 5755 5759 5764 5767 5768 5771 5777 5778 5779 5782 5782 5783 5784 5787 5789 5786 5789 5793 5795 5800 5805 5812 5817 5819 5823 5827 5829 5832 5834 5835 5837 5838 5839
5489 5497 5503 5511 5521 5528 5536 5545 5548 5549 5554 5559 5567 5579 5592 5598 5601 5607 5612 5612 5612 5611 5612 5616 5621 5628 5636 5645 5657 5663 5662 5667 5671 5671 5675 5678 5682 5689 5691 5693 5697 5700 5702 5708 5711 5710 5715 5730 5744 5744 5740 5743 5746 5745 5747 5750 5753 5759 5762 5763 5768 5774 5773 5775 5776 5775 5778 5778 5780 5782 5777 5779 5788 5789 5793 5800 5804 5810 5815 5817 5820 5824 5828 5830 5831 5832 5833 5834
5480 5487 5493 5502 5510 5518 5529 5531 5529 5537 5547 5552 5563 5576 5584 5589 5595 5604 5608 5603 5600 5601 5603 5607 5612 5617 5625 5636 5646 5649 5652 5658 5661 5663 5668 5672 5676 5681 5684 5687 5689 5690 5696 5703 5704 5704 5711 5724 5731 5731 5733 5736 5736 5738 5742 5745 5748 5751 5754 5759 5765 5767 5766 5769 5770 5769 5771 5770 5774 5775 5765 5770 5783 5783 5787 5794 5797 5804 5810 5810 5815 5820 5822 5824 5826 5827 5828 5829
5470 5477 5485 5492 5500 5511 5514 5510 5518 5534 5540 5546 5561 5571 5575 5581 5589 5596 5601 5594 5587 5589 5593 5597 5603 5611 5620 5628 5635 5642 5644 5647 5653 5657 5660 5664 5668 5672 5676 5678 5680 5685 5692 5696 5694 5694 5702 5715 5720 5722 5726 5728 5728 5731 5736 5741 5742 5742 5750 5756 5756 5758 5760 5762 5763 5762 5762 5763 5765 5763 5757 5764 5774 5776 5783 5789 5792 5799 5803 5805 5812 5815 5816 5818 5820 5822 5823 5824
5460 5467 5475 5482 5491 5497 5495 5500 5519 5526 5527 5542 5559 5564 5568 5576 5582 5589 5594 5583 5569 5575 5586 5590 5597 5608 5615 5621 5629 5635 5634 5640 5651 5652 5651 5657 5660 5662 5667 5671 5674 5680 5686 5686 5680 5682 5698 5710 5713 5714 5718 5718 5719 5724 5731 5736 5734 5737 5748 5748 5745 5752 5754 5753 5754 5753 5756 5756 5752 5753 5754 5755 5761 5772 5781 5784 5788 5793 5797 5803 5809 5810 5810 5812 5814 5816 5818 5820
5451 5459 5466 5472 5480 5484 5488 5501 5512 5513 5525 5545 5553 5555 5561 5569 5576 5581 5580 5563 5552 5564 5580 5586 5594 5604 5609 5614 5622 5626 5629 5641 5647 5643 5648 5653 5651 5654 5659 5664 5669 5674 5679 5675 5671 5681 5697 5703 5705 5708 5709 5707 5712 5720 5726 5728 5727 5733 5741 5737 5740 5747 5744 5745 5747 5747 5750 5746 5740 5745 5750 5748 5754 5772 5778 5777 5784 5789 5793 5800 5803 5804 5805 5806 5808 5811 5814 5816
5444 5449 5456 5464 5472 5477 5483 5492 5497 5508 5528 5538 5539 5545 5554 5563 5569 5570 5562 5547 5545 5559 5573 5581 5587 5594 5600 5608 5616 5621 5627 5634 5635 5638 5644 5643 5642 5648 5652 5659 5665 5666 5668 5666 5667 5680 5689 5692 5697 5699 5698 5701 5709 5716 5718 5720 5723 5728 5730 5731 5737 5737 5735 5739 5739 5741 5741 5731 5729 5739 5745 5744 5750 5766 5772 5770 5780 5789 5790 5794 5796 5798 5800 5800 5804 5806 5808 5811
5435 5440 5448 5456 5461 5466 5473 5480 5489 5507 5518 5521 5527 5537 5546 5553 5554 5550 5540 5534 5544 5557 5565 5573 5579 5587 5596 5604 5610 5616 5621 5624 5629 5636 5635 5632 5636 5641 5645 5652 5656 5655 5657 5658 5662 5673 5680 5683 5686 5687 5691 5698 5705 5709 5711 5715 5718 5719 5721 5726 5730 5727 5728 5731 5729 5733 5729 5714 5720 5735 5744 5743 5741 5755 5767 5765 5775 5786 5786 5788 5789 5791 5794 5795 5799 5800 5801 5803
5425 5432 5440 5444 5449 5457 5464 5473 5485 5498 5502 5508 5519 5527 5535 5539 5536 5530 5523 5530 5549 5554 5555 5564 5573 5583 5592 5599 5606 5613 5617 5621 5626 5629 5628 5628 5631 5632 5636 5642 5644 5646 5648 5649 5656 5666 5671 5672 5673 5678 5684 5691 5697 5700 5702 5707 5708 5710 5714 5720 5721 5718 5720 5721 5719 5722 5712 5702 5720 5737 5741 5734 5726 5744 5763 5762 5770 5777 5777 5782 5783 5784 5787 5789 5792 5793 5795 5796
5417 5425 5432 5436 5444 5451 5458 5471 5483 5489 5491 5499 5509 5514 5520 5521 5518 5516 5518 5534 5548 5542 5544 5559 5570 5581 5592 5598 5605 5609 5613 5617 5620 5622 5624 5625 5625 5627 5632 5635 5640 5642 5641 5645 5654 5659 5661 5662 5667 5672 5676 5682 5689 5691 5693 5698 5699 5702 5707 5712 5712 5709 5710 5710 5708 5707 5698 5701 5724 5734 5729 5718 5713 5736 5756 5757 5763 5767 5769 5775 5776 5778 5782 5783 5785 5787 5788 5790
5411 5419 5426 5431 5438 5445 5455 5468 5475 5479 5484 5492 5498 5503 5507 5503 5500 5507 5518 5531 5537 5534 5544 5562 5572 5583 5590 5593 5597 5602 5607 5609 5612 5618 5620 5620 5621 5623 5627 5630 5635 5637 5638 5646 5650 5650 5653 5656 5659 5664 5667 5675 5681 5683 5687 5692 5694 5696 5699 5703 5702 5701 5702 5699 5698 5699 5694 5701 5719 5723 5716 5702 5702 5731 5749 5750 5755 5758 5764 5769 5768 5772 5776 5776 5779 5780 5781 5783
5405 5413 5419 5425 5432 5440 5450 5458 5461 5469 5476 5481 5486 5490 5491 5489 5493 5506 5516 5524 5533 5538 5547 5560 5570 5578 5582 5586 5592 5597 5601 5603 5608 5614 5614 5613 5614 5616 5620 5623 5628 5630 5634 5641 5640 5640 5645 5647 5652 5658 5664 5673 5677 5679 5685 5689 5690 5690 5693 5697 5695 5695 5697 5694 5694 5695 5692 5697 5707 5711 5704 5688 5697 5732 5744 5742 5748 5752 5756 5761 5760 5764 5768 5769 5772 5773 5775 5778
5398 5406 5412 5418 5424 5431 5441 5448 5454 5462 5466 5470 5476 5475 5475 5481 5491 5502 5508 5518 5530 5536 5545 5557 5565 5570 5575 5580 5585 5590 5595 5599 5605 5607 5606 5608 5610 5613 5617 5619 5624 5626 5629 5632 5633 5636 5638 5640 5650 5658 5661 5668 5672 5674 5679 5681 5681 5683 5686 5688 5686 5691 5696 5692 5692 5693 5692 5694 5693 5697 5695 5685 5701 5729 5732 5733 5743 5743 5744 5752 5754 5756 5760 5762 5765 5767 5769 5771
5392 5399 5406 5411 5416 5424 5433 5441 5448 5454 5457 5462 5464 5462 5467 5480 5490 5497 5507 5519 5526 5531 5541 5550 5555 5562 5567 5572 5578 5586 5591 5595 5599 5600 5602 5605 5606 5609 5612 5615 5620 5622 5624 5628 5630 5633 5633 5636 5649 5653 5652 5659 5664 5668 5671 5671 5673 5678 5678 5676 5682 5691 5693 5688 5687 5688 5689 5685 5681 5687 5690 5688 5699 5713 5719 5729 5736 5733 5736 5745 5748 5749 5750 5753 5756 5759 5761 5762
5384 5392 5398 5405 5412 5419 5426 5435 5442 5447 5452 5456 5456 5457 5468 5481 5488 5496 5508 5518 5523 5530 5539 5543 5548 5556 5561 5567 5575 5582 5586 5589 5592 5594 5598 5600 5600 5604 5608 5611 5615 5618 5622 5626 5626 5628 5629 5633 5644 5646 5645 5653 5659 5661 5662 5662 5666 5670 5669 5674 5684 5687 5684 5684 5682 5681 5682 5677 5673 5681 5684 5684 5690 5700 5715 5726 5727 5728 5732 5734 5738 5742 5742 5744 5746 5748 5750 5753
5378 5386 5393 5400 5407 5414 5423 5432 5437 5440 5445 5449 5452 5459 5470 5479 5486 5495 5505 5512 5520 5529 5536 5541 5548 5555 5559 5565 5573 5577 5581 5584 5587 5590 5593 5594 5596 5602 5606 5608 5611 5615 5620 5620 5619 5623 5626 5629 5636 5639 5641 5647 5651 5650 5650 5654 5659 5662 5664 5672 5676 5672 5674 5680 5675 5672 5675 5671 5669 5675 5678 5677 5680 5693 5712 5720 5721 5725 5725 5724 5729 5733 5734 5735 5737 5738 5739 5744
5373 5380 5386 5394 5402 5410 5419 5427 5431 5435 5438 5441 5447 5457 5466 5474 5484 5493 5502 5510 5519 5527 5532 5538 5546 5553 5558 5564 5569 5574 5577 5581 5584 5587 5588 5590 5594 5600 5602 5604 5606 5610 5613 5613 5614 5619 5622 5623 5628 5633 5636 5639 5639 5638 5640 5648 5653 5654 5656 5661 5663 5662 5667 5672 5668 5667 5669 5667 5667 5670 5671 5669 5672 5689 5708 5714 5717 5718 5716 5718 5721 5721 5724 5727 5727 5729 5731 5734
5366 5373 5380 5389 5397 5405 5414 5421 5425 5427 5430 5436 5446 5456 5464 5473 5483 5492 5501 5508 5516 5523 5530 5537 5544 5550 5555 5561 5566 5570 5574 5578 5581 5582 5584 5588 5592 5595 5597 5600 5603 5605 5607 5607 5610 5615 5616 5617 5622 5627 5629 5630 5630 5632 5638 5646 5648 5646 5647 5650 5653 5656 5661 5662 5660 5662 5662 5662 5663 5663 5664 5665 5670 5685 5700 5705 5709 5709 5708 5712 5711 5711 5716 5718 5719 5722 5723 5726
5363 5371 5377 5385 5393 5401 5408 5414 5417 5421 5428 5437 5446 5454 5463 5472 5481 5489 5497 5505 5513 5521 5529 5535 5541 5546 5552 5557 5561 5566 5570 5573 5575 5578 5581 5584 5588 5591 5594 5597 5599 5600 5600 5600 5604 5609 5610 5612 5617 5619 5621 5623 5626 5631 5637 5641 5641 5641 5641 5644 5648 5652 5657 5654 5650 5654 5657 5655 5657 5657 5658 5662 5667 5679 5691 5697 5701 5701 5699 5703 5705 5705 5707 5709 5713 5715 5716 5720
5362 5369 5376 5383 5389 5396 5402 5407 5413 5421 5429 5434 5442 5452 5462 5471 5479 5486 5493 5501 5509 5518 5525 5530 5536 5542 5548 5554 5558 5562 5566 5568 5571 5574 5577 5581 5584 5587 5589 5592 5594 5595 5595 5596 5600 5605 5606 5607 5610 5612 5614 5619 5623 5627 5630 5632 5635 5637 5635 5638 5643 5645 5648 5646 5642 5650 5653 5647 5651 5653 5650 5655 5665 5674 5683 5689 5693 5694 5692 5694 5698 5699 5699 5702 5706 5707 5709 5713
5363 5370 5379 5386 5390 5395 5399 5404 5411 5420 5426 5432 5442 5453 5461 5468 5476 5482 5490 5498 5506 5513 5519 5525 5531 5538 5544 5549 5554 5558 5560 5564 5567 5571 5574 5577 5579 5581 5584 5587 5589 5590 5591 5593 5596 5600 5601 5602 5605 5609 5611 5614 5616 5619 5621 5623 5626 5627 5628 5633 5636 5637 5641 5640 5639 5646 5645 5639 5645 5647 5639 5647 5664 5672 5676 5681 5685 5685 5685 5687 5689 5691 5693 5695 5698 5700 5703 5705
5364 5372 5379 5385 5391 5396 5399 5402 5408 5415 5422 5431 5440 5448 5456 5465 5473 5479 5488 5496 5503 5510 5516 5522 5528 5534 5540 5546 5550 5553 5556 5559 5563 5566 5569 5572 5574 5577 5580 5582 5584 5586 5587 5589 5593 5595 5596 5597 5601 5604 5605 5606 5609 5611 5613 5616 5618 5620 5623 5627 5628 5631 5635 5635 5635 5639 5635 5630 5638 5640 5633 5640 5659 5668 5670 5674 5677 5676 5677 5678 5680 5684 5687 5688 5690 5694 5696 5698
5364 5371 5378 5384 5390 5394 5399 5406 5411 5415 5421 5429 5437 5446 5454 5463 5470 5478 5486 5494 5501 5508 5514 5519 5525 5531 5537 5541 5545 5548 5551 5555 5559 5562 5564 5566 5569 5571 5574 5576 5579 5581 5583 5586 5588 5589 5590 5593 5595 5596 5596 5599 5603 5607 5609 5614 5617 5617 5619 5621 5623 5626 5628 5627 5628 5628 5624 5623 5630 5632 5628 5633 5650 5662 5666 5668 5669 5669 5670 5672 5674 5678 5681 5683 5684 5685 5688 5691
5364 5368 5373 5379 5384 5390 5398 5407 5413 5417 5422 5429 5438 5446 5454 5461 5467 5474 5482 5490 5497 5504 5510 5516 5522 5527 5532 5536 5540 5543 5547 5551 5554 5556 5558 5561 5564 5566 5568 5571 5573 5575 5578 5580 5582 5583 5585 5586 5588 5589 5591 5596 5602 5604 5607 5610 5612 5612 5614 5616 5618 5619 5620 5619 5617 5615 5617 5619 5620 5623 5625 5628 5639 5654 5661 5661 5660 5662 5667 5669 5670 5671 5673 5676 5678 5678 5679 5682
5365 5368 5371 5374 5380 5387 5395 5402 5410 5419 5427 5434 5440 5446 5452 5459 5465 5471 5478 5485 5492 5499 5506 5511 5516 5522 5527 5532 5536 5540 5543 5547 5549 5551 5554 5556 5559 5561 5564 5566 5568 5570 5573 5575 5576 5578 5579 5581 5584 5586 5588 5593 5596 5597 5599 5602 5603 5605 5606 5607 5609 5611 5611 5609 5606 5609 5615 5611 5608 5617 5624 5621 5627 5645 5655 5655 5654 5658 5663 5664 5664 5664 5664 5667 5670 5670 5670 5673
5366 5371 5376 5379 5382 5386 5392 5399 5408 5419 5429 5435 5441 5447 5453 5459 5464 5470 5477 5483 5489 5495 5501 5506 5512 5519 5525 5528 5532 5535 5538 5542 5545 5547 5549 5552 5555 5557 5559 5561 5563 5565 5568 5570 5572 5574 5575 5577 5581 5583 5585 5589 5590 5590 5593 5595 5596 5597 5598 5599 5600 5602 5602 5601 5600 5605 5609 5601 5600 5614 5619 5614 5621 5637 5647 5649 5649 5652 5656 5657 5657 5657 5656 5657 5658 5659 5662 5664
5368 5372 5378 5383 5388 5393 5398 5406 5414 5421 5427 5433 5439 5446 5453 5459 5464 5469 5476 5482 5488 5493 5498 5505 5510 5515 5520 5524 5528 5531 5535 5539 5542 5543 5546 5548 5550 5552 5554 5557 5560 5562 5565 5567 5569 5571 5573 5575 5577 5579 5581 5584 5584 5585 5588 5590 5589 5590 5592 5593 5593 5594 5595 5596 5597 5600 5602 5597 5599 5610 5611 5609 5616 5627 5638 5645 5645 5644 5646 5647 5647 5648 5646 5645 5645 5648 5654 5657
5372 5376 5381 5385 5391 5398 5404 5410 5418 5423 5428 5434 5441 5447 5452 5458 5463 5468 5475 5481 5487 5492 5497 5503 5509 5513 5516 5520 5524 5529 5533 5537 5539 5541 5543 5545 5547 5550 5552 5555 5558 5560 5562 5564 5566 5568 5569 5570 5573 5575 5577 5579 5580 5581 5583 5584 5583 5584 5585 5587 5588 5590 5591 5593 5595 5598 5597 5594 5596 5601 5600 5600 5611 5622 5631 5637 5636 5633 5634 5636 5637 5637 5636 5635 5636 5640 5645 5647
5375 5381 5386 5390 5394 5399 5404 5410 5417 5423 5428 5434 5440 5445 5450 5456 5462 5467 5473 5479 5485 5490 5495 5500 5505 5509 5512 5517 5522 5526 5529 5531 5533 5536 5538 5541 5545 5548 5550 5553 5555 5556 5558 5560 5562 5564 5565 5566 5569 5571 5572 5573 5575 5576 5577 5578 5578 5577 5579 5584 5587 5588 5589 5591 5592 5593 5591 5589 5590 5591 5590 5595 5609 5618 5621 5627 5628 5625 5624 5626 5627 5628 5628 5628 5628 5632 5636 5640
5376 5382 5387 5392 5398 5403 5407 5411 5416 5422 5429 5435 5439 5445 5451 5456 5461 5466 5471 5477 5482 5488 5493 5497 5501 5504 5508 5514 5518 5521 5523 5525 5527 5530 5533 5536 5539 5542 5545 5548 5550 5551 5553 5555 5557 5559 5561 5562 5564 5567 5568 5568 5570 5572 5573 5573 5571 5570 5577 5583 5585 5585 5584 5585 5585 5586 5586 5585 5583 5583 5585 5592 5603 5609 5614 5621 5622 5616 5614 5616 5618 5620 5621 5620 5622 5627 5631 5634